EST,Max TemperatureF,Mean TemperatureF,Min TemperatureF,Max Dew PointF,MeanDew PointF,Min DewpointF,Max Humidity, Mean Humidity, Min Humidity, Max Sea Level PressureIn, Mean Sea Level PressureIn, Min Sea Level PressureIn, Max VisibilityMiles, Mean VisibilityMiles, Min VisibilityMiles, Max Wind SpeedMPH, Mean Wind SpeedMPH, Max Gust SpeedMPH,PrecipitationIn, CloudCover, Events, WindDirDegrees
2012-11-1,46,44,42,43,40,37,96,86,76,29.62,29.51,29.43,10,10,7,21,12,28,0.19,8,Rain,256
2012-11-2,42,40,37,39,34,30,89,80,70,29.88,29.74,29.62,10,10,7,21,11,25,0.01,8,Rain,287
2012-11-3,41,39,36,34,31,28,92,78,64,30.09,29.98,29.89,10,10,9,18,10,25,0.04,8,Rain,293
2012-11-4,38,36,34,32,29,25,89,77,64,30.12,30.10,30.07,10,8,1,15,8,17,T,8,Snow,296
2012-11-5,37,35,33,31,26,20,89,71,52,30.22,30.16,30.09,10,8,1,14,6,16,0.05,8,Snow,333
2012-11-6,41,36,30,24,23,21,69,58,46,30.22,30.17,30.09,10,10,10,13,6,16,0.00,5,,152
2012-11-7,41,34,26,29,24,19,85,63,41,30.14,30.10,30.06,10,10,10,17,6,21,0.00,5,,34
2012-11-8,43,36,28,27,23,20,78,61,43,30.15,30.11,30.09,10,10,10,16,8,23,0.00,2,,314
2012-11-9,49,38,27,39,33,21,85,73,60,30.22,30.16,30.11,10,8,6,13,6,16,T,7,,250
2012-11-10,51,46,40,43,40,39,96,81,66,30.31,30.25,30.19,10,5,1,12,5,22,0.03,8,Rain,117
2012-11-11,73,62,50,45,40,37,80,55,29,30.27,30.23,30.19,10,10,10,16,8,21,0.08,6,Thunderstorm,167
2012-11-12,69,56,43,51,44,37,86,64,42,30.17,30.08,29.91,10,10,6,26,14,33,0.23,7,Rain,208
2012-11-13,42,39,36,37,26,21,71,61,50,30.54,30.40,30.21,10,10,9,22,9,30,0.02,8,Snow,269
2012-11-14,40,35,29,30,26,23,92,73,54,30.62,30.57,30.51,10,10,10,10,3,14,0.00,7,,289
2012-11-15,47,37,26,30,26,23,92,68,43,30.50,30.41,30.35,10,10,9,12,2,13,0.00,3,,58
2012-11-16,48,37,26,35,29,24,92,75,58,30.53,30.44,30.36,10,9,6,10,3,13,0.00,2,,283
2012-11-17,55,41,27,34,30,26,92,67,41,30.66,30.62,30.53,10,8,5,8,2,15,0.00,2,,216
2012-11-18,54,41,28,34,29,23,85,65,45,30.66,30.60,30.52,10,8,4,10,3,13,0.00,5,,86
2012-11-19,54,42,30,35,30,24,96,71,45,30.50,30.40,30.25,10,8,5,9,2,20,0.00,3,,213
2012-11-20,50,41,31,39,33,30,96,76,56,30.24,30.19,30.14,10,8,5,7,2,9,0.00,7,,356
2012-11-21,54,40,26,38,31,26,100,71,41,30.28,30.22,30.17,10,5,0,8,2,9,0.00,1,Fog,230
2012-11-22,61,46,31,37,31,26,89,63,37,30.22,30.14,29.98,10,10,10,12,5,15,0.00,2,,204
2012-11-23,54,45,36,44,33,23,76,60,44,29.96,29.75,29.65,10,10,10,30,17,40,T,6,Rain-Snow,226
2012-11-24,38,35,32,27,23,19,75,64,52,29.92,29.81,29.73,10,9,1,28,17,38,T,6,Snow,281
2012-11-25,34,33,31,28,24,19,78,67,56,29.92,29.87,29.82,10,7,2,18,11,25,0.01,8,Snow,245
2012-11-26,38,35,32,27,24,19,78,67,56,30.25,30.09,29.88,10,10,9,18,11,24,T,7,Snow,251
2012-11-27,38,34,29,27,22,20,75,66,56,30.31,30.27,30.24,10,10,9,10,5,14,T,8,Snow,240
2012-11-28,38,35,31,27,23,20,70,62,54,30.26,30.21,30.15,10,10,6,21,11,29,T,8,Snow,239
2012-11-29,47,37,26,33,26,19,79,66,53,30.30,30.24,30.19,10,10,10,26,12,36,0.00,5,,248
2012-11-30,37,32,26,32,23,19,92,81,69,30.45,30.39,30.29,10,7,1,17,10,22,0.05,8,Snow,72